Home   Weather   Werne   Past weeks

Flag for Germany Past Weather in Werne, North Rhine-Westphalia, Germany — Yesterday and Last 2 Weeks

Now
75 °F

Sunny.


Feels Like: 77 °F
Forecast: 53 / 67 °F
Wind: 9 mph from Southwest

Location: Dortmund / Wickede

Current Time: Sep 25, 2016 at 5:49:35 PM

Latest Report: Sep 25, 2016 at 5:20 PM


Visibility: 10 mi

Pressure: 30.01 "Hg

Humidity: 36%

Dew Point: 46 °F

Location of WerneLocation

Past Weather in Werne — Graph

°F

Werne Temperature Yesterday

Maximum temperature yesterday: 73 °F (at 4:20 PM)
Minimum temperature yesterday: 50 °F (at 5:20 AM)
Average temperature yesterday: 63 °F

High & Low Weather Summary for the Past Weeks

 TemperatureHumidityPressure
High90 °F (Sep 13, 3:20 PM)88% (Sep 16, 6:20 AM)30.27 "Hg (Sep 16, 6:20 AM)
Low45 °F (Sep 21, 6:20 AM)23% (Sep 15, 2:50 PM)29.80 "Hg (Sep 15, 3:50 PM)
Average66 °F56%30.05 "Hg
* Reported Sep 10 4:20 PM — Sep 25 4:20 PM, Werne, Weather by CustomWeather, © 2016

Note: Actual official high and low records may vary slightly from our data, if they occured in-between our weather recording intervals... More about our weather records

Advertising

Werne Weather History for the Previous 24 Hours

Scroll right to see more
 ConditionsComfort  
Time TempWeatherWind HumidityBarometerVisibility
4:20 PM
Sun, Sep 25
77 °FSunny.14 mph32%30.01 "Hg10 mi
3:50 PM79 °FSunny.14 mph30%30.01 "Hg10 mi
3:20 PM79 °FPassing clouds.13 mph30%30.01 "HgN/A
2:50 PM77 °FPassing clouds.13 mph30%30.01 "HgN/A
2:20 PM79 °FPassing clouds.12 mph28%30.01 "HgN/A
1:50 PM77 °FPassing clouds.13 mph32%30.01 "HgN/A
1:20 PM77 °FSunny.13 mph32%30.01 "Hg10 mi
12:50 PM75 °FPassing clouds.10 mph34%30.01 "HgN/A
12:20 PM75 °FPassing clouds.12 mph34%30.01 "HgN/A
11:50 AM73 °FSunny.10 mph38%30.04 "Hg10 mi
11:20 AM72 °FSunny.12 mph44%30.04 "Hg10 mi
10:50 AM68 °FPassing clouds.9 mph46%30.04 "HgN/A
10:20 AM66 °FSunny.9 mph52%30.04 "Hg10 mi
9:50 AM64 °FSunny.10 mph52%30.04 "Hg10 mi
9:20 AM59 °FSunny.8 mph63%30.04 "Hg10 mi
8:50 AM57 °FSunny.8 mph63%30.07 "Hg10 mi
8:20 AM55 °FSunny.10 mph67%30.07 "Hg10 mi
7:50 AM55 °FSunny.10 mph63%30.07 "Hg10 mi
7:20 AM54 °FClear.9 mph67%30.07 "Hg10 mi
6:50 AM54 °FClear.8 mph67%30.07 "Hg10 mi
6:20 AM54 °FClear.8 mph67%30.07 "Hg10 mi
5:50 AM54 °FClear.10 mph67%30.07 "Hg10 mi
5:20 AM52 °FClear.9 mph72%30.07 "Hg10 mi
9:50 PM
Sat, Sep 24
61 °FClear.6 mph52%30.15 "Hg10 mi
9:20 PM63 °FClear.6 mph49%30.15 "Hg10 mi
8:50 PM64 °FPassing clouds.6 mph46%30.15 "HgN/A
8:20 PM63 °FClear.5 mph49%30.15 "Hg10 mi
7:50 PM63 °FClear.3 mph49%30.15 "Hg10 mi
7:20 PM63 °FSunny.5 mph49%30.15 "Hg10 mi
6:50 PM68 °FSunny.5 mph43%30.15 "Hg10 mi
6:20 PM72 °FPassing clouds.7 mph33%30.15 "HgN/A
5:50 PM72 °FPassing clouds.7 mph33%30.15 "HgN/A
5:20 PM72 °FPassing clouds.8 mph33%30.18 "HgN/A
Weather by CustomWeather, © 2016

See weather overviewHow to use our weather pages